Weather in Verkhnemalye

Russia / Kirov Oblast     60°24′19″N   47°31′41″E
temp.,
°C
wind,
m/s
gust,
m/s
humid.,
%
clouds,
%
prec.,
mm/h
press.,
hPa
HPBL,
m
23 april, fri
fri2300:00+3s4119643 0.0 1019380
03:00+3s389335 0.0 1019251
06:00+3s38925 0.0 1021223
09:00+9ssw47725 0.0 1021640
12:00+13ssw575328 0.1 10201781
15:00+14s565215 0.1 10201696
18:00+11sse486483 0.0 1021879
21:00+8sse413799 0.0 1021412
24 april, sat
sat2400:00+6sse4118546 0.0 1020255
03:00+6se3108183 0.0 1020211
06:00+7se3107498 0.0 1019295
09:00+9se4973100 0.0 1018494
12:00+12se575496 0.3 10161589
15:00+11se575597 0.4 10151411
18:00+10ese4960100 0.0 1013943
21:00+6ese41175100 0.0 1012558
25 april, sun
sun2500:00+6e4981100 0.0 1010733
03:00+6ese4893100 0.4 10071045
06:00+5e5996100 0.4 1005952
09:00+5e4996100 1.1 1004798
12:00+4e41096100 0.4 1003714
15:00+4e41096100 0.9 1002685
18:00+4e4797100 0.3 1001729
21:00+3e3697100 0.6 1001542
26 april, mon
mon2600:00+3ene2498100 0.8 1000601
03:00+3ene1298100 1.4 1000574
06:00+3e0198100 0.3 1001510
09:00+3ssw1297100 0.4 1002589
12:00+3sw2497100 0.4 1003572
15:00+1sw4997100 2.0 1005476
18:00+2sw41097100 1.4 1006801
21:00+2wsw41096100 1.8 1006869
27 april, tue
tue2700:00+2sw4992100 0.1 1007762
03:00+1sw399573 0.1 1007367
06:00+1sw38884 0.0 1007259
09:00+6sw35685 0.0 1006946
12:00+8ssw3354100 0.3 10051505
15:00+7s3363100 0.9 10041040
18:00+6wnw1175100 0.4 100378
21:00+3n2692100 1.8 1003420